Weather in Rodnaya Dolina

Russia / Omsk Oblast     54°51′40″N   71°44′38″E
temp.,
°C
wind,
m/s
gust,
m/s
humid.,
%
clouds,
%
prec.,
mm/h
press.,
hPa
HPBL,
m
15 may, sat
sat1500:00+17ssw3448100 0.0 102452
03:00+15wsw45515 0.0 102353
06:00+15wsw495436 0.0 1023134
09:00+23w610358 0.0 1022417
12:00+28w67298 0.0 10211198
15:00+30wnw672379 0.0 10193429
18:00+30w462121 0.0 10183146
21:00+20nne2357100 0.9 101995
16 may, sun
sun1600:00+19wsw7165525 1.1 1018414
03:00+17wsw410645 0.1 1017203
06:00+17w4136629 0.1 1016252
09:00+23wnw5846100 0.0 1016362
12:00+28nw61035100 0.0 10161648
15:00+30nw8122976 0.0 10152853
18:00+30nw7112713 0.0 10142890
21:00+24wnw474175 0.0 101595
17 may, mon
mon1700:00+19ene34716 0.0 101799
03:00+18se11755 0.0 101811
06:00+17sse117652 0.0 101911
09:00+23s34546 0.0 1019399
12:00+29wsw56295 0.0 10171248
15:00+32wnw7102146 0.0 10163633
18:00+31nw610236 0.0 10153588
21:00+25wnw33375 0.0 101423
18 may, tue
tue1800:00+23w493969 0.0 1013131
03:00+21w5124337 0.0 1013237
06:00+18wnw475410 0.0 1013124
09:00+24wnw47400 0.0 1012415
12:00+28wnw69318 0.0 10122777
15:00+29nw71025100 0.0 10103741
18:00+27nnw7932100 0.0 10102460
21:00+22nnw35460 0.0 101082
19 may, wed
wed1900:00+18nne37618 0.0 1011195
03:00+16n51078100 1.8 1011348
06:00+13nne61087100 4.4 1014604
09:00+13nne6979100 0.0 1017951
12:00+14n785999 0.1 10181325
15:00+18n893326 0.0 10191806
18:00+18n793651 0.0 10201844
21:00+14n5114419 0.0 1022408